DateTimeUTC,F1_A11,F1_S11,BsB_S11,BsG_S11,BsR_S11,BbsB_S11,BbsG_S11,BbsR_S11,BaB_A11,BaG_A11,BaR_A11,Tu_S11,T_S11,Uu_S11,U_S11,P_S11,T1_A11
2021-11-04T04:00:00Z,00000200,21000000,,,,,,,-000.37,-000.08,-000.57,18.8,25.9,,00.0,0647.8,31.1
2021-11-04T04:01:00Z,00000200,21000000,,,,,,,-000.13,-000.23,-000.08,18.8,25.8,,00.0,0647.8,31.1
2021-11-04T04:02:00Z,00000200,21000000,,,,,,,-000.02,-000.13,0000.04,18.8,25.8,,00.0,0647.8,31.1
2021-11-04T04:03:00Z,00000200,61000000,,,,,,,0000.04,0000.12,-000.06,18.8,25.8,,00.0,0647.8,31.1
2021-11-04T04:04:00Z,00000200,41000000,0001.28,0000.37,-000.08,-000.23,0000.05,0000.01,0000.37,0000.12,0000.18,18.8,25.6,,00.0,0648.7,31.1
2021-11-04T04:05:00Z,00000200,01000000,0000.10,0000.31,-000.15,-000.30,-000.16,-000.12,0000.22,0000.15,0000.11,18.9,25.6,,00.0,0648.8,31.1
2021-11-04T04:06:00Z,00000200,01000000,-000.50,-000.03,0000.06,-000.55,0000.02,0000.26,0000.36,0000.21,0000.24,19.0,25.6,,00.0,0648.8,31.1
2021-11-04T04:07:00Z,00000200,01000000,0000.17,0000.54,0000.45,-000.66,0000.07,0000.31,0000.12,0000.63,0000.48,19.1,25.6,,00.0,0648.8,31.2
2021-11-04T04:08:00Z,00000200,01000000,0000.35,-000.06,0000.00,-000.12,-000.14,-000.05,0000.22,-000.12,-000.31,19.2,25.7,,00.0,0648.8,31.2
2021-11-04T04:09:00Z,00000200,01000000,-000.33,0000.40,-000.47,-000.24,0000.23,-000.02,0000.33,0000.31,0000.48,19.3,25.7,,00.0,0648.8,31.2
2021-11-04T04:10:00Z,00000200,01000000,-000.19,0000.13,-000.07,-000.00,0000.13,-000.37,-000.05,0000.40,-000.02,19.3,25.8,,00.0,0648.8,31.2
2021-11-04T04:11:00Z,00000200,01000000,0000.52,0000.04,-000.21,0000.13,0000.10,-000.10,0000.40,0000.26,0000.53,19.4,25.8,,00.0,0648.8,31.2
2021-11-04T04:12:00Z,00000200,01000000,-000.05,-000.17,-000.16,0000.09,0000.15,0000.01,0000.53,0000.36,0000.13,19.3,25.8,,00.0,0648.7,31.2
2021-11-04T04:13:00Z,00000200,01000000,0000.39,-000.24,-000.11,0000.01,-000.19,0000.07,-000.37,-000.54,-000.03,19.3,25.8,,00.0,0648.7,31.1
2021-11-04T04:14:00Z,00000200,01000000,0000.14,0000.10,-000.21,0000.06,-000.08,-000.15,0000.44,0000.21,-000.08,19.2,25.7,,00.0,0648.7,31.1
2021-11-04T04:15:00Z,00000200,01000000,0000.02,0000.03,-000.31,-000.14,-000.25,-000.17,0000.02,0000.18,0000.34,19.2,25.7,,00.0,0648.7,31.1
2021-11-04T04:16:00Z,00000200,01000000,-000.01,0000.20,-000.07,-000.56,-000.27,0000.11,0000.15,0000.20,0000.01,19.1,25.7,,00.0,0648.7,31.1
2021-11-04T04:17:00Z,00000200,01000000,0000.37,0000.07,-000.12,-000.22,0000.03,-000.05,0000.25,0000.49,0000.07,19.0,25.6,,00.0,0648.7,31.1
2021-11-04T04:18:00Z,00000200,01000000,-000.03,0000.23,-000.21,0000.10,0000.19,0000.22,0000.48,0000.19,0000.36,19.0,25.6,,00.0,0648.7,31.1
2021-11-04T04:19:00Z,00000200,01000000,-000.05,0000.20,0000.08,-000.30,-000.09,0000.23,0000.22,0000.46,0000.52,19.0,25.6,,00.0,0648.7,31.1
2021-11-04T04:20:00Z,00000200,01000000,-000.31,0000.04,-000.46,0000.20,0000.35,0000.11,0000.15,-000.13,-000.20,19.1,25.6,,00.0,0648.7,31.2
2021-11-04T04:21:00Z,00000200,01000000,0000.14,0000.18,0000.09,0000.17,-000.02,-000.10,-000.13,0000.12,0000.23,19.2,25.7,,00.0,0648.7,31.1
2021-11-04T04:22:00Z,00000200,01000000,-001.04,-000.18,0000.07,0000.33,-000.17,0000.05,0000.32,0000.25,-000.05,19.3,25.7,,00.0,0648.7,31.2
2021-11-04T04:23:00Z,00000200,01000000,-000.37,0000.26,-000.15,-000.54,-000.00,-000.11,-000.14,-000.10,0000.13,19.4,25.8,,00.0,0648.7,31.2
2021-11-04T04:24:00Z,00000200,01000000,0000.07,0000.28,-000.18,0000.40,0000.15,0000.26,-000.06,-000.17,-000.07,19.5,25.8,,00.0,0648.7,31.2
2021-11-04T04:25:00Z,00000200,01000000,-000.46,0000.35,-000.16,0000.06,0000.08,0000.22,-000.24,0000.11,-000.38,19.5,25.8,,00.0,0648.7,31.2
2021-11-04T04:26:00Z,00000200,01000000,-000.21,-000.14,0000.30,-000.42,-000.19,-000.26,-000.20,-000.65,0000.15,19.5,25.9,,00.0,0648.7,31.2
2021-11-04T04:27:00Z,00000200,01000000,0001.02,0000.05,-000.46,-000.59,0000.53,-000.31,-000.29,0000.01,-000.17,19.5,25.8,,00.0,0648.7,31.2
2021-11-04T04:28:00Z,00000200,01000000,0000.19,0000.26,0000.01,0000.17,0000.16,-000.05,0000.36,0000.15,-000.19,19.4,25.8,,00.0,0648.7,31.2
2021-11-04T04:29:00Z,00000200,01000000,0000.37,0000.00,-000.24,0000.03,-000.21,-000.29,-000.04,0000.36,0000.06,19.3,25.8,,00.0,0648.7,31.2
2021-11-04T04:30:00Z,00000200,01000000,0000.54,0000.08,0000.01,-000.01,0000.33,-000.08,0000.50,-000.23,0000.15,19.3,25.7,,00.0,0648.7,31.1
2021-11-04T04:31:00Z,00000200,01000000,-000.04,-000.08,-000.28,-000.38,-000.23,-000.24,-000.37,-000.25,0000.04,19.2,25.7,,00.0,0648.7,31.1
2021-11-04T04:32:00Z,00000200,01000000,-000.70,0000.21,-000.41,-000.05,-000.02,-000.05,0000.22,0000.37,0000.19,19.2,25.7,,00.0,0648.7,31.1
2021-11-04T04:33:00Z,00000200,01000000,0000.24,0000.09,0000.03,-000.21,-000.11,0000.14,0000.13,0000.06,0000.01,19.2,25.6,,00.0,0648.7,31.1
2021-11-04T04:34:00Z,00000200,01000000,0000.56,0000.05,-000.38,0000.04,0000.01,-000.21,-000.65,-000.18,-000.22,19.2,25.7,,00.0,0648.7,31.1
2021-11-04T04:35:00Z,00000200,01000000,0000.71,-000.28,-000.20,0000.31,0000.14,0000.15,0000.70,0000.23,0000.09,19.2,25.7,,00.0,0648.7,31.2
2021-11-04T04:36:00Z,00000200,01000000,0000.37,-000.10,-000.06,-000.16,0000.15,-000.28,-000.02,0000.13,0000.30,19.3,25.7,,00.0,0648.7,31.2
2021-11-04T04:37:00Z,00000200,01000000,0000.40,0000.92,-000.09,0000.30,0000.07,-000.17,0000.43,0000.42,0000.33,19.4,25.8,,00.0,0648.7,31.2
2021-11-04T04:38:00Z,00000200,01000000,0000.59,-000.02,-000.08,0000.02,-000.22,0000.19,0000.25,0000.70,-000.14,19.5,25.8,,00.0,0648.7,31.2
2021-11-04T04:39:00Z,00000200,01000000,-000.30,0000.09,0000.03,-000.20,0000.04,0000.24,-000.34,-000.58,0000.23,19.5,25.9,,00.0,0648.8,31.2
2021-11-04T04:40:00Z,00000200,01000000,0000.20,0000.35,0000.38,-000.27,-000.02,0000.41,0000.17,0000.06,-000.23,19.6,25.9,,00.0,0648.8,31.2
2021-11-04T04:41:00Z,00000200,01000000,-000.40,-000.10,-000.21,0000.11,-000.07,-000.01,0000.30,0000.20,0000.28,19.5,25.9,,00.0,0648.7,31.2
2021-11-04T04:42:00Z,00000200,01000000,0000.06,0000.29,-000.04,0000.47,-000.01,-000.02,-000.08,0000.18,0000.33,19.4,25.9,,00.0,0648.7,31.2
2021-11-04T04:43:00Z,00000200,01000000,0000.73,0000.24,-000.29,-000.16,-000.10,-000.07,-000.09,-000.34,-000.28,19.4,25.8,,00.0,0648.8,31.1
2021-11-04T04:44:00Z,00000200,01000000,0000.77,-000.21,-000.12,0000.01,0000.35,-000.29,-000.05,0000.21,-000.14,19.3,25.8,,00.0,0648.8,31.1
2021-11-04T04:45:00Z,00000200,01000000,0000.37,0000.25,-000.03,0000.40,-000.35,0000.23,0000.04,-000.28,-000.07,19.3,25.8,,00.0,0648.8,31.1
2021-11-04T04:46:00Z,00000200,01000000,0000.27,0000.24,0000.16,0000.12,0000.18,-000.01,0000.02,0000.42,0000.08,19.2,25.7,,00.0,0648.8,31.1
2021-11-04T04:47:00Z,00000200,01000000,0000.19,-000.32,-000.00,-000.24,0000.08,-000.07,0000.41,-000.23,0000.27,19.1,25.7,,00.0,0648.8,31.1
2021-11-04T04:48:00Z,00000200,01000000,0000.01,0000.13,-000.24,0000.33,-000.33,0000.25,0000.05,-000.03,0000.29,19.1,25.7,,00.0,0648.8,31.1
2021-11-04T04:49:00Z,00000200,01000000,0000.34,0000.12,0000.23,0000.10,0000.34,0000.19,0000.21,0000.43,-000.15,19.2,25.7,,00.0,0648.8,31.1
2021-11-04T04:50:00Z,00000200,01000000,0000.57,0000.16,-000.21,-000.07,-000.01,-000.20,-000.01,-000.05,0000.21,19.2,25.7,,00.0,0648.8,31.1
2021-11-04T04:51:00Z,00000200,01000000,-000.01,-000.04,-000.22,0000.25,-000.16,-000.10,0000.09,0000.36,-000.01,19.3,25.7,,00.0,0648.8,31.1
2021-11-04T04:52:00Z,00000200,01000000,0000.44,-000.37,-000.04,0000.11,-000.03,-000.25,0000.23,0000.12,0000.07,19.4,25.8,,00.0,0648.8,31.2
2021-11-04T04:53:00Z,00000200,01000000,-000.09,0000.19,-000.48,0000.35,0000.01,0000.08,-000.24,-000.15,-000.09,19.5,25.8,,00.0,0648.8,31.2
2021-11-04T04:54:00Z,00000200,01000000,0000.13,-000.20,-000.12,-000.08,-000.15,-000.08,0000.37,0000.35,0000.30,19.5,25.8,,00.0,0648.8,31.2
2021-11-04T04:55:00Z,00000200,01000000,-000.41,0000.38,-000.20,0000.43,0000.22,0000.02,-000.03,-000.15,-000.40,19.5,25.8,,00.0,0648.8,31.2
2021-11-04T04:56:00Z,00000200,01000000,-000.15,-000.29,-000.15,-000.32,0000.27,-000.01,-000.39,-000.24,0000.06,19.4,25.8,,00.0,0648.8,31.1
2021-11-04T04:57:00Z,00000200,41000000,,,,,,,-000.64,-000.44,-000.42,19.4,25.9,,00.0,0648.8,31.2
2021-11-04T04:58:00Z,00000200,61000000,,,,,,,0000.26,-000.03,0000.09,19.1,25.9,,00.0,0647.9,31.1
2021-11-04T04:59:00Z,00000200,21000000,,,,,,,0000.24,0000.01,-000.24,19.0,26.0,,00.0,0647.9,31.1
